Weather in Juiz de Fora

Brazil     21°45′12″S   43°21′04″W
temp.,
°C
wind,
m/s
gust,
m/s
humid.,
%
clouds,
%
prec.,
mm/h
press.,
hPa
HPBL,
m
28 june, tue
tue2800:00+10nne11932 0.0 102213
03:00+9nne119338 0.0 102113
06:00+9n11956 0.0 102214
09:00+14nne23722 0.0 1023398
12:00+19nne33575 0.0 1021880
15:00+21nne33535 0.0 10181049
18:00+15ene22765 0.0 101921
21:00+14nne22820 0.0 102017
29 june, wed
wed2900:00+12n22850 0.0 102014
03:00+11n22870 0.0 101913
06:00+11nnw22900 0.0 101913
09:00+18n23620 0.0 1019299
12:00+25n25430 0.0 10171396
15:00+27w24330 0.0 10132165
18:00+18ssw11670 0.0 101611
21:00+16n11720 0.0 101813
30 june, thu
thu3000:00+15wnw11730 0.0 101811
03:00+13sw22800 0.0 101716
06:00+12sw23943 0.0 101950
09:00+18ssw23787 0.0 1021394
12:00+24sse11530 0.0 10191013
15:00+25e12450 0.0 10161637
18:00+18ene22680 0.0 101720
21:00+15ne11770 0.0 101913
1 july, fri
fri100:00+14ne11900 0.0 102016
03:00+13ne119717 0.0 102019
06:00+13nne129972 0.0 102064
09:00+16nne238877 0.0 1022319
12:00+22nne33580 0.0 1021788
15:00+23ne22510 0.0 10181157
18:00+17ene35770 0.0 101975
21:00+15ne22870 0.0 102126
2 july, sat
sat200:00+14ne22930 0.0 102227
03:00+13nne22950 0.0 102122
06:00+13nne22971 0.0 102333
09:00+17nne48730 0.0 1024529
12:00+23nne56430 0.0 10231070
15:00+24nne45370 0.0 10201320
18:00+17ne23540 0.0 102227
21:00+15nne22630 0.0 102427